Regional Weather Roundup
Issued by NWS

Home | Current Version | Previous Version | Graphics & Text | Print | Product List | Glossary Off
Versions: 1 2 3 4 5 6 7 8 9 10 11 12 13 14 15 16 17 18 19 20 21 22 23 24 25 26 27 28 29 30 31 32 33 34 35 36 37 38 39 40 41 42 43 44 45 46 47 48 49 50

000
ASUS43 KMKX 211400
RWRWI

WISCONSIN REGIONAL WEATHER ROUNDUP
NATIONAL WEATHER SERVICE MILWAUKEE/SULLIVAN WI
800 AM CST WED FEB 21 2018

NOTE: "FAIR" INDICATES FEW OR NO CLOUDS BELOW 12,000 FEET WITH NO
SIGNIFICANT WEATHER AND/OR OBSTRUCTIONS TO VISIBILITY.

WIZ001-002-006>008-014>016-023>028-211500-
NORTHWEST WISCONSIN

CITY           SKY/WX    TMP DP  RH WIND       PRES   REMARKS
SUPERIOR ARPT  FAIR      -2  -7  80 SW7       30.51R WCI -15
ASHLAND        FAIR       1  -4  79 SW9       30.50R WCI -14
HAYWARD        FAIR      -3  -6  87 S5        30.48R WCI -13
SIREN          FAIR      -1  -6  81 W7        30.51R WCI -14
CUMBERLAND     FAIR      -4  -8  84 CALM      30.49R
RICE LAKE      FAIR      -5  -8  86 CALM      30.52R
CHETEK         FAIR      -1  -4  87 CALM      30.52R
LADYSMITH      FAIR      -1  -4  87 CALM      30.50R
EAU CLAIRE     NOT AVBL
MENOMONIE      FAIR       5  -1  78 SW5       30.56R WCI  -4
NEW RICHMOND   FAIR       0  -4  82 SW5       30.53R WCI -10
OSCEOLA        FAIR      -2  -6  83 CALM      30.57R
$$

WIZ003>005-009-010-017-018-211500-
NORTH CENTRAL WISCONSIN

CITY           SKY/WX    TMP DP  RH WIND       PRES   REMARKS
MANITOWISH WTR FAIR      -3  -5  90 CALM      30.40R
ARBOR VITAE    FAIR       3  -1  85 CALM      30.40R
WOODRUFF       FAIR       3  -1  85 CALM      30.40R
RHINELANDER    FAIR       1  -3  83 W8        30.42R WCI -13
EAGLE RIVER    FAIR       3  -2  78 W6        30.40R WCI  -8
LAND O LAKES   FAIR       6   2  84 W5        30.41R WCI  -3
PHILLIPS       FAIR       0  -3  88 SW3       30.43R
TOMAHAWK       FAIR       0  -3  87 CALM      30.44R
MEDFORD        FAIR       1  -2  85 W6        30.45R WCI -10
MERRILL        FAIR       5   0  82 CALM      30.48R
$$

WIZ029-030-035-036-043>047-211500-
CENTRAL WISCONSIN

CITY           SKY/WX    TMP DP  RH WIND       PRES   REMARKS
WAUSAU         FAIR       5   1  83 W9        30.48R WCI  -9
MOSINEE        NOT AVBL
MARSHFIELD     FAIR       4   0  83 NW9       30.49R WCI -10
STEVENS POINT  FAIR       7   3  84 W6        30.51R WCI  -4
WAUPACA        FAIR      15   8  72 W12       30.51R WCI   2
WAUTOMA        FLURRIES  13   9  84 W15       30.54R WCI  -3
WISC RAPIDS    FAIR       9   2  73 NW8       30.54R WCI  -3
CAMP DOUGLAS   NOT AVBL
$$

WIZ011>013-019>022-031-037>040-048>050-211500-
NORTHEAST WISCONSIN

CITY           SKY/WX    TMP DP  RH WIND       PRES   REMARKS
ANTIGO         FAIR       6   2  85 NW9       30.42R WCI  -8
SHAWANO        FAIR      16   9  74 W6        30.50R WCI   8
OCONTO         FAIR      17  10  74 W8        30.48R WCI   6
STURGEON BAY   FAIR      18  11  74 W10       30.48R WCI   6
GREEN BAY      FAIR      19   9  65 NW15      30.49R WCI   5
MANITOWOC      FAIR      20  13  74 NW13      30.49R WCI   7
APPLETON       MOSUNNY   16   9  73 NW13      30.47R WCI   2
CLINTONVILLE   FAIR      15   8  75 W12       30.51R WCI   1
OSHKOSH        FAIR      17  10  74 W12       30.49R WCI   4
$$

WIZ032>034-041-042-053>061-211500-
SOUTHWEST WISCONSIN

CITY           SKY/WX    TMP DP  RH WIND       PRES   REMARKS
LA CROSSE      FAIR      11   5  77 NW5       30.60R WCI   3
SPARTA         FAIR      10   5  82 CALM      30.57R
VIROQUA        FAIR       9   7  89 NW5       30.53R WCI   1
BOSCOBEL       FAIR      16   7  67 NW6       30.59R WCI   7
PRAIRIE DU CHI FAIR      13   4  67 NW10      30.59R WCI   0
PLATTEVILLE    FAIR      16  13  86 NW13      30.52R WCI   3
$$

WIZ056-057-062-063-064-067-068-211500-
SOUTH CENTRAL WISCONSIN

CITY           SKY/WX    TMP DP  RH WIND       PRES   REMARKS
REEDSBURG      FAIR      15   9  78 NW6       30.54R WCI   6
BARABOO/DELLS  FAIR      15  10  81 NW8       30.51R WCI   4
LONE ROCK      FAIR      17  11  77 NW9       30.56R WCI   6
MINERAL POINT  FAIR      18  18 100 NW10      30.50R WCI   6
MADISON        PTSUNNY   18  12  77 NW12      30.52R WCI   5
MIDDLETON      FAIR      20  15  78 NW10      30.51R WCI   9
WATERTOWN      FAIR      19  14  79 NW8       30.48R WCI   9
MONROE         FAIR      21  16  79 NW7       30.48R WCI  13
JANESVILLE     CLOUDY    25  18  74 N9        30.49R WCI  15
$$

WIZ051-052-058>065-066-070>072-211500-
SOUTHEAST WISCONSIN

CITY           SKY/WX    TMP DP  RH WIND       PRES   REMARKS
MILWAUKEE      PTSUNNY   24  14  65 NW14G22   30.47R WCI  12
WAUKESHA       SUNNY     19  12  73 NW12      30.48R WCI   7
MILWAUKEE/TIMM SUNNY     21  12  68 NW12      30.48R WCI   9
RACINE         FAIR      24  15  68 NW12      30.48R WCI  13
BURLINGTON     FAIR      22  15  73 N12       30.47R WCI  11
KENOSHA        FAIR      25  16  68 NW13      30.47R WCI  14
FOND DU LAC    FAIR      19  10  68 NW12      30.50R WCI   7
SHEBOYGAN      FAIR      20  13  74 NW10      30.48R WCI   9
WEST BEND      FAIR      21  14  73 NW9       30.46R WCI  11
JUNEAU         FAIR      18  12  79 NW9       30.49R WCI   6
$$

LSZ147-162-211500-
LAKE SUPERIOR

STATION/POSITION TIME  TEMP    WIND        PRES    WAVE
                       AIR SEA DIR/SP/G            HT/PER
                 (UTC) (F)     (DEG/KT/KT) (MB)    (FT/S)
DEVILS ISLAND    1300    8     220/ 11/ 13 1032.3R
SAXON HARBOR     1330    5     200/  8/ 13 1031.8R
$$

LMZ867-665-643>646-211500-
LAKE MICHIGAN

STATION/POSITION TIME  TEMP    WIND        PRES    WAVE
                       AIR SEA DIR/SP/G            HT/PER
                 (UTC) (F)     (DEG/KT/KT) (MB)    (FT/S)
NORTHPORT PIER   1340   19                 1031.2R
KEWAUNEE LAKESHO 1330   20     290/ 10/ 13 1030.6R
SHEBOYGAN LAKESH 1300   22     300/ 13/ 15 1032.0R
PORT WASHINGTON  1330   22     310/  6/  9 1032.8R
MILWAUKEE LAKESH 1340   23     310/  9/ 13   N/A
KENOSHA   LAKESH 1300   25     320/  7/ 15 1030.5
$$

TC  - TEMPERATURE IN CELSIUS
VSB - VISIBILITY IN STATUTE MILES
WCI - WIND CHILL INDEX
HX  - HEAT INDEX




USA.gov is the U.S. government's official web portal to all federal, state and local government web resources and services.